This is the latest recevied weather packets stored in our database for station/object VE3VGJ. If no packets are shown the sender has not sent any weather packets the latest 10 day(s).
| Time | Temp. | Humidity | Pressure | Rain* | Wind** | Luminosity | Snow |
|---|---|---|---|---|---|---|---|
| 1778081574 | 6.11° C | 92% | 1010 hPa | 0 mm | - | 180 W/m² | - |
| 1778081271 | 6.11° C | 92% | 1009.8 hPa | 0 mm | - | 174 W/m² | - |
| 1778080968 | 6.11° C | 92% | 1009.9 hPa | 0 mm | - | 152 W/m² | - |
| 1778080667 | 6.11° C | 92% | 1009.8 hPa | 0 mm | - | 197 W/m² | - |
| 1778080363 | 6.67° C | 92% | 1010.1 hPa | 0 mm | - | 188 W/m² | - |
| 1778080060 | 6.67° C | 92% | 1010 hPa | 0 mm | - | 184 W/m² | - |
| 1778079757 | 6.11° C | 92% | 1010 hPa | 0 mm | - | 181 W/m² | - |
| 1778079454 | 6.67° C | 91% | 1009.9 hPa | 0 mm | - | 225 W/m² | - |
| 1778079150 | 6.67° C | 91% | 1009.9 hPa | 0 mm | - | 249 W/m² | - |
| 1778078848 | 6.67° C | 91% | 1009.9 hPa | 0 mm | - | 278 W/m² | - |
| 1778078545 | 6.67° C | 90% | 1010 hPa | 0 mm | - | 222 W/m² | - |
| 1778078242 | 6.67° C | 91% | 1010.1 hPa | 0 mm | - | 252 W/m² | - |
| 1778077940 | 6.67° C | 93% | 1009.8 hPa | 0 mm | - | 280 W/m² | - |
| 1778077638 | 6.11° C | 92% | 1009.9 hPa | 0 mm | - | 250 W/m² | - |
| 1778077336 | 6.67° C | 92% | 1009.8 hPa | 0 mm | - | 243 W/m² | - |
| 1778077034 | 6.11° C | 93% | 1009.7 hPa | 0 mm | - | 284 W/m² | - |
| 1778076732 | 6.67° C | 93% | 1009.6 hPa | 0 mm | - | 239 W/m² | - |
| 1778076429 | 6.11° C | 93% | 1009.6 hPa | 0 mm | - | 235 W/m² | - |
| 1778076126 | 6.11° C | 94% | 1009.9 hPa | 0 mm | - | 253 W/m² | - |
| 1778075823 | 6.11° C | 94% | 1009.8 hPa | 0 mm | - | 232 W/m² | - |
| 1778075519 | 6.11° C | 94% | 1009.9 hPa | 0 mm | - | 186 W/m² | - |
| 1778075216 | 6.11° C | 95% | 1010 hPa | 0 mm | - | 171 W/m² | - |
| 1778074912 | 6.11° C | 95% | 1009.6 hPa | 0 mm | - | 191 W/m² | - |
| 1778074609 | 6.11° C | 95% | 1009.8 hPa | 1.27 mm | - | 167 W/m² | - |
| 1778074306 | 6.11° C | 95% | 1009.9 hPa | 1.27 mm | - | 117 W/m² | - |
* Rain latest hour (hover to see other rain measurements)
** Current wind speed in m/s (hover to see current wind gust speed)